CAPE
0 0 0 0 0 0 0 0 0 0 0 0 0 2 0 0 0 0 0 0 0 0 0 0 0 0 0 0 0 7 0 0 0 0 0 0 1156 860 1309 1460 1925 1837 1562 1718 1407 1603 1428 1318 1163 1016 1011 971 1194 1262 1502 1306 1075 1103 1146 1412 1384 1505 1548 1362 1705 1460 1309 1547 1284 1224 974 911 1041 731 771 1237 1094 885 955 714 426 686 803 1002 994 1005
0 0 0 0 0 0 0 0 0 0 0 0 0 0 2 0 0 0 0 0 0 0 0 0 0 0 0 0 0 2 0 0 0 0 0 0 0 210 691 1008 2037 1870 1703 1429 1565 1346 1154 1387 1258 1038 1081 1074 1001 1220 1436 1489 1149 1128 1067 1017 1540 1644 1739 1781 1927 2010 1947 1378 1154 1095 615 558 687 373 688 794 952 717 557 537 735 968 572 836 1033 963
0 0 0 0 0 0 0 0 0 0 0 0 0 0 0 3 0 0 0 1 6 0 2 0 0 0 0 0 0 3 14 0 0 0 0 0 0 0 391 637 990 1958 1843 1512 1411 1246 1328 1625 1180 1093 1142 1304 1272 1210 1302 1325 1080 1015 1035 1254 1488 1577 1777 1761 1849 1974 1508 2006 1894 1837 1035 1284 284 404 892 385 240 317 436 1006 842 801 767 565 545 747
0 0 0 0 0 0 0 0 0 0 0 0 0 0 0 2 0 0 6 1 5 0 0 0 0 0 0 0 0 0 0 24 0 0 0 0 0 22 466 504 1044 1550 1750 1369 1368 1451 1503 1811 1355 1167 1388 1511 1351 1324 1480 1346 992 967 980 1098 1461 1505 1364 1365 1272 1014 1300 1442 1777 1262 2877 1323 1293 466 436 396 529 327 351 597 773 841 994 793 451 259
0 4 0 0 0 0 0 0 0 0 0 0 0 0 0 0 0 0 19 18 1 0 0 0 0 0 0 0 0 0 0 7 0 0 0 0 0 28 716 946 1277 1366 1424 1305 1403 1585 1622 1529 1229 1137 1322 1510 1427 1438 1482 1289 1023 894 1089 1275 1297 1263 1189 1009 797 884 1245 1136 1195 2260 575 569 445 425 261 218 54 306 290 306 593 715 720 377 128 234
12 36 16 0 0 0 0 0 0 0 0 0 0 0 0 0 0 1 23 3 1 0 0 0 0 0 0 0 0 0 0 0 7 38 8 0 41 411 1224 1216 1291 1404 1210 1218 1368 1467 1553 1998 1324 1115 1325 1492 1424 1453 1248 1013 968 1105 1255 1332 1407 1156 1056 1002 900 707 597 674 812 1310 776 518 309 161 100 243 286 11 153 256 220 280 449 400 572 329
4 16 0 0 0 4 0 0 0 0 0 0 0 0 0 0 0 0 16 0 2 0 22 1 0 0 0 0 0 0 0 0 60 70 46 11 40 780 1045 1585 1482 1479 1431 1468 1357 1364 1474 1753 1263 972 1376 1292 1421 1290 1087 1067 1128 1341 1206 1185 833 602 849 814 592 601 628 778 746 885 561 249 398 298 594 419 428 974 49 401 580 271 348 305 549 474
0 0 0 0 0 0 0 0 0 0 0 0 0 0 0 0 0 0 2 0 0 0 19 3 0 0 0 0 0 0 0 1 63 35 89 30 37 997 1205 1045 1021 1165 1344 1195 1069 972 1356 1407 1339 778 926 1382 1230 1355 1270 1366 1312 1039 899 786 635 503 482 576 406 358 288 256 369 510 1156 630 732 1262 794 910 824 251 407 345 278 443 613 340 341 554
0 0 0 2 0 0 0 0 0 0 0 0 0 0 0 0 0 0 0 1 0 0 0 0 0 0 0 0 0 0 0 0 111 48 105 164 112 832 963 951 828 893 1139 958 1052 1276 1403 1202 787 667 988 1169 1362 1466 1396 1290 1105 786 658 719 810 836 696 488 480 601 375 236 347 779 1510 1421 1144 540 571 230 9 429 317 254 227 841 352 589 532 257
0 0 0 0 0 0 0 0 0 0 0 0 0 0 2 0 0 0 0 0 17 11 0 2 68 3 0 0 4 0 2 74 116 50 92 204 134 748 925 641 720 822 1105 950 1029 1108 1167 892 394 449 663 1239 1391 1401 1378 1181 946 679 715 922 846 819 638 589 503 433 382 529 822 1249 1604 1390 501 527 304 197 422 446 324 590 658 472 615 440 542 641
3 0 0 0 0 0 0 0 0 0 0 0 0 0 0 0 0 0 0 0 0 0 0 0 104 32 18 1 0 40 45 146 53 17 75 84 487 915 758 666 755 1228 1487 1460 1042 839 1057 625 551 536 1014 1137 1232 1210 1189 1029 876 791 847 994 1052 794 731 739 628 535 649 1146 1729 1437 1853 627 457 523 579 492 426 495 512 417 295 472 574 732 500 371
0 0 0 0 0 0 0 0 0 0 0 0 0 0 4 3 0 0 0 0 0 0 0 0 0 66 17 13 0 0 18 65 78 32 31 76 611 747 947 701 540 1164 1313 1055 783 751 805 676 728 636 976 997 1111 1222 1200 1133 1050 958 850 941 1138 996 802 823 900 859 1080 1583 1459 1801 1123 682 643 495 564 379 487 353 265 410 573 780 798 479 380 187
0 0 0 0 0 0 0 0 6 0 0 0 0 0 0 0 0 0 0 0 0 0 4 0 24 2 12 355 159 246 66 25 7 193 349 213 909 615 593 689 1144 995 1074 1131 676 913 1013 672 819 694 1002 952 1262 1129 1125 1143 1126 1056 970 889 879 953 949 883 1033 1036 1398 1710 1412 1639 1097 1066 897 677 547 522 562 404 474 495 629 645 567 315 202 162
0 0 0 0 0 0 0 0 3 0 0 0 0 0 4 8 0 0 0 0 0 0 0 94 52 34 51 47 13 3 118 324 310 116 195 626 827 880 896 1325 1301 1179 970 810 803 936 1329 1055 1042 853 772 906 1128 1061 1026 971 958 913 941 950 945 1012 1073 1066 1166 1203 1322 1484 1475 1414 1269 1184 868 961 646 796 532 633 544 547 527 613 453 395 124 36
0 0 0 0 0 0 0 0 1 0 0 0 0 0 24 67 0 0 0 3 1 0 130 35 56 18 14 97 242 222 226 340 224 547 451 560 657 902 713 930 938 745 642 586 908 802 822 839 687 753 705 906 1146 967 940 838 828 862 1046 1112 1183 1188 1154 1118 1241 1294 1358 1268 1344 1396 1285 930 912 1022 814 876 822 613 591 417 388 711 566 163 7 16
0 0 0 0 0 0 0 0 0 0 0 0 0 0 0 1 4 14 276 103 158 0 0 25 14 321 108 48 316 274 127 165 362 508 438 269 597 756 487 652 812 666 584 681 643 632 730 693 623 614 752 885 884 968 958 1030 1020 1004 1058 1104 1090 1130 1142 1163 1293 1439 1335 1270 1298 1232 1152 819 1061 568 746 786 451 657 655 462 614 788 557 325 107 4
0 16 4 0 0 0 0 0 0 0 0 249 0 0 0 3 21 23 34 28 124 0 0 54 10 222 187 267 246 190 23 46 65 242 298 327 248 757 322 532 828 514 656 657 460 539 455 498 496 626 774 868 861 821 834 1015 1115 1228 1264 1333 1377 1304 1220 1124 1302 1385 1536 1384 1193 1166 1238 1157 896 537 674 616 458 630 600 625 828 530 524 321 59 2
5 548 10 2 0 0 0 0 0 0 0 0 0 0 0 2 163 49 14 0 1 0 1 252 60 314 31 125 86 194 167 77 0 352 178 282 445 581 836 794 774 802 992 765 478 439 378 350 406 580 722 847 870 893 884 984 1391 1629 1493 1267 1077 985 1073 1288 1334 1433 1561 1252 1134 1118 1130 1251 901 524 758 516 556 517 564 549 518 634 379 205 59 3
0 0 0 6 8 1 0 0 0 0 0 7 6 0 0 1 0 3 0 12 0 0 0 0 1 276 11 116 96 204 100 196 507 436 331 183 393 557 834 587 580 740 944 582 578 578 447 444 408 476 638 726 918 1094 1177 1039 1321 1561 1413 1338 1328 1267 1432 1444 1404 1455 1520 1306 1175 1070 972 1126 941 589 564 507 500 347 380 291 384 439 398 270 39 5
0 0 0 68 41 3 0 0 1 0 0 0 0 18 1 74 1 29 1 6 9 3 0 0 0 181 124 572 32 9 635 519 419 351 463 256 427 504 693 736 673 614 759 357 489 661 554 399 462 219 294 531 732 722 769 838 914 1179 1216 1262 1265 1305 1096 1010 1135 1120 1345 1222 945 995 1089 1106 966 491 321 462 474 363 258 199 304 420 354 220 30 14
7 22 19 5 0 0 45 0 0 0 0 0 0 0 2 25 381 24 102 0 1 6 15 10 1 301 468 495 379 344 597 402 531 436 264 282 410 438 595 802 742 817 843 702 779 794 760 698 689 670 754 640 679 676 577 750 893 1162 1086 972 894 954 941 1058 1234 1382 1303 1288 866 985 1249 979 1122 754 409 459 454 387 259 289 99 281 298 28 129 16
0 0 6 8 5 0 0 1 0 0 0 0 0 0 1 37 74 10 30 0 0 0 1 0 53 276 567 603 493 757 657 558 238 207 155 95 410 323 379 353 588 613 638 756 753 732 673 635 706 663 696 640 668 587 676 734 899 1092 1153 939 1023 837 821 1060 1111 994 1098 1112 909 781 1071 1130 914 1100 405 387 458 429 667 628 449 472 60 30 137 14
248 338 1 0 0 32 14 6 0 2 0 0 2 1 0 6 20 8 7 42 4 10 4 0 69 264 528 627 516 688 660 636 546 473 161 32 103 105 2 301 408 749 896 625 444 529 574 487 657 574 551 759 820 687 730 739 882 889 929 898 893 860 920 851 750 917 1015 1093 1322 1159 1182 1148 927 1205 540 420 347 603 277 473 590 370 299 134 165 59
89 1 22 7 8 1 9 4 0 0 0 4 1 1 1 3 1 0 56 383 133 16 0 0 15 336 555 533 528 577 510 381 307 718 641 567 438 383 403 154 260 203 544 515 624 683 636 486 455 231 245 418 616 824 715 828 1030 934 759 752 803 920 708 796 956 885 950 1177 1304 1196 1150 983 1102 1159 884 220 290 603 118 179 193 435 465 327 15 3
0 0 0 4 34 8 11 2 17 5 0 0 0 2 7 0 2 153 98 64 0 0 1 1 1 38 495 650 382 369 296 288 406 383 563 507 550 463 311 303 299 647 521 356 410 397 380 257 211 259 302 443 669 754 808 910 930 725 744 741 845 923 818 684 729 892 784 1144 1136 1206 1169 1229 1308 1246 1085 533 295 621 272 254 161 252 526 837 399 44
0 3 0 0 2 4 7 2 1 0 0 0 0 1 0 2 116 289 0 263 0 0 1 8 91 340 391 383 322 424 385 413 307 408 264 565 377 347 304 219 267 576 582 629 566 540 576 366 379 613 724 657 742 691 702 820 915 458 608 588 787 807 805 719 891 842 678 676 1182 1309 1464 1431 1474 1595 1446 1256 928 708 260 203 302 367 480 497 274 374
0 67 38 2 1 2 4 7 0 0 0 0 0 1 107 103 0 30 395 10 0 235 64 396 294 368 340 195 86 343 358 280 276 99 89 142 320 316 374 385 673 521 520 441 462 525 462 426 547 717 812 716 598 592 567 570 696 583 798 814 770 672 754 710 624 592 705 644 818 1064 1324 1445 1360 1136 900 808 675 306 429 237 187 354 190 330 251 331
55 56 35 28 30 14 4 2 0 0 0 0 0 17 46 124 614 2 15 61 2 75 9 22 608 606 304 111 249 301 250 214 252 232 232 157 135 190 300 155 405 423 363 435 334 227 391 334 325 471 465 459 512 544 541 530 522 630 780 762 775 728 852 752 667 535 368 688 700 944 693 813 780 979 838 928 761 455 250 320 686 220 112 134 410 337
68 2 80 56 58 2 0 0 0 0 0 0 0 12 51 288 266 542 11 2 49 2 0 286 305 575 501 378 500 492 389 518 376 254 107 68 201 264 430 318 300 262 99 279 240 190 242 209 280 379 321 366 323 211 301 149 442 730 625 702 755 674 637 646 668 688 682 617 984 634 637 880 751 905 874 806 710 525 390 369 571 536 980 597 770 1255
47 34 130 40 53 5 0 0 0 0 0 0 0 0 6 142 155 146 474 400 406 14 496 632 567 530 588 423 446 468 466 558 439 288 80 151 139 175 72 58 21 184 204 38 69 49 64 15 297 452 288 231 312 295 408 544 457 632 539 578 399 502 535 681 632 576 1048 860 964 896 766 696 1096 1128 960 904 798 640 590 628 855 973 588 764 1054 1018
272 200 202 84 76 20 36 0 0 0 0 0 0 0 0 0 0 44 113 166 270 616 660 545 301 219 285 256 261 339 365 254 217 316 273 110 100 244 126 80 59 26 19 8 13 4 4 0 0 0 15 281 104 142 124 344 259 576 651 605 616 397 367 368 372 409 607 583 569 628 760 793 768 818 1062 1089 1065 1042 944 1025 1051 807 820 873 999 601
374 28 71 210 1 14 1 0 0 0 0 0 0 0 0 0 0 26 215 76 314 251 522 285 36 9 88 0 13 227 306 310 321 306 124 106 106 88 76 106 35 0 0 0 0 0 0 0 0 0 8 6 0 0 12 73 214 0 0 59 192 182 339 513 399 449 451 483 500 621 678 820 739 977 1030 1133 846 1034 1039 991 1049 943 866 1152 1003 859
55 79 70 33 0 0 25 0 0 0 0 0 1 0 0 1 0 0 0 4 174 142 42 251 113 13 0 0 14 135 303 260 222 347 181 194 93 184 119 183 175 59 45 132 87 41 0 4 0 0 0 0 0 3 0 0 0 0 1 3 0 295 447 339 423 230 284 301 388 501 662 604 614 654 786 839 775 1061 1195 1017 1043 954 982 1132 1020 894
75 93 23 43 1 1 69 19 5 0 6 7 45 158 7 9 0 0 0 30 23 23 38 64 30 8 0 0 0 0 137 212 200 135 186 181 246 187 119 103 0 95 161 141 129 8 8 0 0 0 0 0 0 0 0 0 0 2 0 0 0 0 0 0 16 48 72 134 228 440 500 486 559 630 748 788 817 887 879 739 692 1040 1048 913 743 723
171 311 24 37 32 264 34 9 4 3 12 50 10 2 15 0 0 0 0 0 1 11 6 12 2 33 0 0 0 0 4 18 46 86 88 100 112 116 107 70 80 85 71 49 41 36 24 25 15 10 6 2 0 1 2 2 0 0 0 0 0 0 1 0 0 1 12 2 0 0 0 0 0 0 8 373 685 771 840 953 1152 820 911 816 767 691
22 35 34 30 90 51 39 82 61 24 1 1 0 2 1 0 1 0 0 0 0 0 2 0 7 0 0 0 0 0 5 13 11 54 78 59 26 16 9 13 18 8 2 20 14 13 7 6 14 7 5 2 4 9 9 8 0 0 0 0 0 0 0 0 0 0 0 0 0 0 0 0 1 2 0 0 0 4 94 737 1107 1000 875 890 786 647
56 131 53 43 27 63 70 96 9 18 22 0 0 0 0 0 0 10 0 0 2 0 0 0 0 0 0 0 0 0 3 15 13 16 7 7 7 4 6 4 1 2 2 3 2 0 0 0 4 6 4 0 0 0 0 0 0 0 0 2 2 0 0 1 1 0 0 0 0 0 0 0 0 0 0 0 4 0 2 12 162 533 751 778 726 555
161 123 64 56 19 26 30 18 16 24 39 0 0 0 2 1 0 5 0 0 0 0 0 0 0 0 0 0 0 1 0 0 0 0 0 0 0 0 0 0 0 0 0 0 0 0 0 0 0 0 0 0 0 0 0 0 0 0 0 0 0 0 1 5 1 0 0 0 0 0 0 0 0 0 0 0 0 10 66 56 25 76 203 354 472 548
26 241 23 19 60 15 24 5 15 8 0 0 0 0 0 0 0 2 0 0 1 0 0 0 0 0 0 0 0 0 0 0 0 0 0 0 0 3 5 0 0 0 0 0 0 0 0 0 0 0 0 0 0 0 0 0 0 0 0 0 0 0 0 0 0 2 1 1 0 0 0 0 0 0 0 0 3 16 16 56 61 48 54 134 159 207
33 23 5 0 6 13 11 7 9 0 0 0 0 0 0 0 0 1 0 3 6 0 0 0 0 0 0 0 0 0 0 0 0 0 0 0 0 0 0 0 0 0 0 0 0 0 0 0 0 0 0 0 0 0 0 0 0 0 0 0 0 0 0 0 0 0 0 0 0 0 0 0 0 0 0 0 0 0 0 0 1 23 107 167 57 38
21 16 2 5 6 4 0 2 0 0 0 0 0 0 0 0 0 0 16 1 0 16 1 0 1 17 0 0 0 0 0 0 0 0 0 0 0 0 0 0 0 0 1 1 3 7 8 8 11 6 8 14 15 11 8 4 3 0 0 0 0 0 0 0 0 0 0 0 0 0 0 0 0 0 0 0 0 0 0 0 0 15 43 65 44 42
0 0 0 0 0 0 1 0 1 0 0 0 0 0 0 0 0 0 0 0 0 0 0 0 0 0 0 0 0 0 0 0 0 0 0 0 0 0 0 0 0 0 0 0 0 2 5 3 3 4 0 0 0 0 0 0 0 0 0 0 0 0 0 0 0 0 0 0 0 0 0 0 0 0 0 0 0 0 0 0 0 0 6 8 29 101
0 0 2 0 0 0 0 0 2 8 0 0 0 0 0 0 0 0 0 0 1 1 2 1 0 0 0 0 0 0 0 0 0 0 0 0 0 0 0 0 0 0 0 0 0 0 0 0 0 0 0 0 0 0 0 0 0 0 0 0 0 0 0 0 0 0 0 0 0 0 0 0 0 0 0 0 0 0 0 0 0 0 0 0 5 49
0 0 4 0 0 0 0 1 2 1 1 0 0 0 0 0 0 0 0 0 0 0 0 0 0 0 0 0 0 0 0 0 0 0 0 0 0 0 0 0 0 0 0 0 0 0 0 0 0 0 0 0 0 0 0 0 0 0 0 0 0 0 0 0 0 0 0 0 0 0 0 0 0 0 0 0 0 0 0 0 0 0 0 0 1 15
0 0 0 0 0 0 2 0 0 0 1 0 0 2 5 4 2 0 0 0 0 0 0 0 0 0 0 0 0 0 0 0 0 0 0 0 0 0 0 0 0 0 0 0 0 0 0 0 0 0 0 0 0 0 0 0 0 0 0 0 0 0 0 0 0 0 0 0 0 0 0 0 0 0 0 0 0 0 0 0 0 0 0 0 0 4
0 1 0 0 0 0 1 3 0 0 0 0 0 0 0 0 2 1 0 0 0 0 0 0 0 0 0 0 0 0 0 0 0 0 0 0 0 0 0 0 0 0 0 0 0 0 0 0 0 0 0 0 0 0 0 0 0 0 0 0 0 0 0 0 0 0 0 0 0 0 0 0 0 0 0 0 0 0 0 0 0 0 0 0 0 0
0 0 5 4 0 1 13 1 1 1 0 0 0 0 0 0 0 0 0 0 0 0 0 0 0 0 0 1 0 0 0 0 0 0 0 0 0 0 0 0 0 0 0 0 0 0 0 0 0 0 0 0 0 0 0 0 0 0 0 0 0 0 0 0 0 0 0 0 0 0 0 0 0 0 0 0 0 0 0 0 0 0 0 0 0 0
0 0 0 4 3 1 2 5 0 2 2 1 1 1 0 0 0 0 0 0 0 0 0 0 0 0 0 1 0 0 0 0 0 0 0 0 0 0 0 0 0 0 0 0 0 0 0 0 0 0 0 1 1 0 1 0 1 1 1 2 1 1 0 2 0 0 0 0 0 0 0 0 0 0 0 0 0 0 0 0 0 0 0 0 0 0
0 0 8 2 0 6 0 2 2 0 3 2 1 1 0 0 0 0 0 1 1 0 0 0 0 0 0 0 0 0 0 0 0 0 0 0 0 0 0 0 0 0 0 0 0 1 1 2 1 1 1 4 0 1 2 2 2 1 2 2 2 1 2 0 1 0 0 0 0 0 1 0 0 0 0 0 0 0 0 0 0 0 0 0 3 0
2 2 0 0 0 1 2 3 1 6 1 0 1 0 0 0 0 1 0 0 0 0 0 0 0 0 0 0 0 0 0 0 0 0 0 0 0 0 0 0 0 0 0 0 1 1 1 1 2 2 0 0 1 1 3 1 2 1 2 1 0 1 1 1 1 0 0 0 1 1 0 0 1 1 0 0 0 0 0 0 0 0 0 0 0 0
0 0 0 1 1 5 1 9 0 3 4 2 0 5 1 3 3 4 3 2 0 0 0 0 0 0 0 0 0 0 0 0 0 0 0 0 0 0 0 0 0 0 0 0 1 2 0 0 2 1 2 1 2 1 2 1 2 3 2 1 2 1 0 1 1 2 1 2 2 2 2 1 1 1 1 0 0 0 0 0 0 0 0 0 0 0
Wind_Speed
nan nan nan nan nan nan nan nan nan nan nan nan nan nan nan nan nan nan nan nan nan nan nan nan nan nan nan nan nan nan nan nan nan nan nan nan 34 30 31 26 23 24 23 25 26 33 31 30 33 31 26 24 25 23 22 22 26 22 18 23 23 20 19 20 21 22 22 23 22 20 19 21 18 18 14 15 16 15 15 14 17 17 17 16 16 17
nan nan nan nan nan nan nan nan nan nan nan nan nan nan nan nan nan nan nan nan nan nan nan nan nan nan nan nan nan nan nan nan nan nan nan nan nan 23 33 27 23 24 24 26 31 36 26 26 32 30 25 27 28 24 23 24 29 24 20 22 24 21 19 23 23 22 21 22 20 20 20 17 16 16 13 16 15 15 15 16 16 17 16 16 17 17
nan nan nan nan nan nan nan nan nan nan nan nan nan nan nan nan nan nan nan nan nan nan nan nan nan nan nan nan nan nan nan nan nan nan nan nan nan nan 33 31 25 26 27 32 43 33 16 22 33 30 26 27 29 27 25 26 27 26 26 21 25 20 23 25 25 22 22 22 23 22 19 16 15 14 15 15 14 14 16 15 16 15 14 16 18 17
nan nan nan nan nan nan nan nan nan nan nan nan nan nan nan nan nan nan nan nan nan nan nan nan nan nan nan nan nan nan nan nan nan nan nan nan nan nan 35 38 30 27 31 42 35 21 18 26 32 30 28 31 30 27 25 26 28 28 26 26 25 25 25 25 25 23 22 25 24 23 21 24 20 19 18 16 15 17 15 15 16 15 13 14 15 15
nan nan nan nan nan nan nan nan nan nan nan nan nan nan nan nan nan nan nan nan nan nan nan nan nan nan nan nan nan nan nan nan nan nan nan nan nan nan 38 40 33 35 45 36 23 17 24 30 33 33 31 32 31 28 27 29 28 25 27 27 26 25 25 25 25 24 24 28 28 26 27 23 20 19 17 17 nan 16 18 17 15 15 14 15 13 14
nan nan nan nan nan nan nan nan nan nan nan nan nan nan nan nan nan nan nan nan nan nan nan nan nan nan nan nan nan nan nan nan nan nan nan nan nan 38 47 45 44 45 36 28 19 23 29 30 37 37 35 33 31 30 31 31 26 20 25 26 26 25 24 25 27 27 29 27 26 28 26 23 21 20 18 17 19 nan 15 17 15 14 13 13 13 15
nan nan nan nan nan nan nan nan nan nan nan nan nan nan nan nan nan nan nan nan nan nan nan nan nan nan nan nan nan nan nan nan nan nan nan nan nan 38 43 48 46 38 34 22 16 27 27 28 41 38 35 31 31 32 33 28 21 22 22 23 24 25 25 24 24 26 29 26 26 27 24 19 19 18 17 19 17 18 nan 17 16 16 12 13 13 13
nan nan nan nan nan nan nan nan nan nan nan nan nan nan nan nan nan nan nan nan nan nan nan nan nan nan nan nan nan nan nan nan nan nan nan nan nan 44 43 49 46 36 30 20 16 22 26 32 44 37 29 29 29 31 29 24 21 21 20 22 24 25 26 22 22 25 24 25 24 21 15 16 15 17 19 18 18 19 20 18 16 13 12 13 12 13
nan nan nan nan nan nan nan nan nan nan nan nan nan nan nan nan nan nan nan nan nan nan nan nan nan nan nan nan nan nan nan nan 22 nan 21 19 25 50 45 46 43 33 24 15 19 24 34 46 44 33 26 22 26 27 25 22 19 18 20 21 23 24 23 18 20 18 21 20 19 13 10 13 18 20 18 18 nan 18 17 17 12 13 13 12 11 12
nan nan nan nan nan nan nan nan nan nan nan nan nan nan nan nan nan nan nan nan nan nan nan nan nan nan nan nan nan nan nan nan 20 nan nan 20 28 46 44 39 37 28 18 15 20 36 46 45 38 31 31 23 22 24 24 21 18 17 18 18 23 22 16 14 15 15 16 17 18 15 13 14 14 16 16 15 17 18 15 15 16 15 14 13 12 12
nan nan nan nan nan nan nan nan nan nan nan nan nan nan nan nan nan nan nan nan nan nan nan nan 13 nan nan nan nan nan nan 21 nan nan nan nan 36 40 38 34 35 26 18 19 36 41 41 38 38 36 29 25 21 17 18 18 17 17 17 17 18 18 15 13 11 12 13 13 15 17 18 17 15 15 16 16 16 16 15 16 15 14 13 14 15 14
nan nan nan nan nan nan nan nan nan nan nan nan nan nan nan nan nan nan nan nan nan nan nan nan nan nan nan nan nan nan nan nan nan nan nan nan 39 29 26 31 30 25 20 33 42 42 38 35 36 35 25 21 20 19 19 21 19 18 19 20 18 19 19 17 14 13 12 10 13 15 20 20 18 17 16 15 14 14 16 16 14 15 16 17 17 15
nan nan nan nan nan nan nan nan nan nan nan nan nan nan nan nan nan nan nan nan nan nan nan nan nan nan nan 21 30 30 nan nan nan 26 35 35 32 26 22 28 31 24 23 38 42 37 33 32 29 30 28 27 23 22 23 24 21 17 15 16 19 18 20 18 16 16 13 13 15 16 18 18 18 16 15 14 14 13 16 15 16 16 16 17 15 14
nan nan nan nan nan nan nan nan nan nan nan nan nan nan nan nan nan nan nan nan nan nan nan nan nan nan nan nan nan nan 28 28 26 25 23 28 30 28 29 29 27 25 28 37 37 35 31 25 23 22 27 27 23 19 23 25 24 18 15 15 21 24 21 18 18 17 14 14 17 19 21 21 19 16 15 14 14 14 16 16 17 16 16 13 12 nan
nan nan nan nan nan nan nan nan nan nan nan nan nan nan nan nan nan nan nan nan nan nan 11 nan nan nan nan nan 32 34 33 27 27 33 35 29 27 29 30 28 27 33 37 34 32 32 31 27 26 24 24 20 22 23 22 21 20 20 19 20 24 24 23 22 20 18 18 19 19 21 24 23 19 18 17 15 16 17 18 19 18 16 14 12 nan nan
nan nan nan nan nan nan nan nan nan nan nan nan nan nan nan nan nan nan 16 17 21 nan nan nan nan 26 26 nan 29 28 29 31 28 27 31 34 27 26 28 27 34 39 34 28 28 30 28 27 26 26 25 24 24 24 26 28 25 22 21 24 28 28 26 23 21 19 21 21 22 22 23 22 20 21 20 19 19 18 19 20 19 17 14 11 12 nan
nan nan nan nan nan nan nan nan nan nan nan 18 nan nan nan nan nan nan nan nan 21 nan nan nan nan 28 26 24 24 25 nan nan nan 29 29 34 33 29 25 31 39 36 29 24 29 32 22 21 21 24 27 26 25 21 22 27 24 21 21 21 24 25 24 23 22 22 22 23 24 24 22 21 21 21 21 22 22 23 22 23 21 18 14 13 nan nan
nan 19 nan nan nan nan nan nan nan nan nan nan nan nan nan nan 13 nan nan nan nan nan nan 20 nan 19 nan 22 nan 26 23 nan nan 41 43 36 33 33 33 35 38 36 29 27 27 25 16 14 22 26 23 26 28 25 25 25 20 17 16 19 24 25 25 24 23 23 22 24 25 23 20 18 18 18 21 24 27 28 27 25 22 17 16 13 nan nan
nan nan nan nan nan nan nan nan nan nan nan nan nan nan nan nan nan nan nan nan nan nan nan nan nan 16 nan 20 nan 24 22 30 42 42 39 36 32 33 34 35 36 35 31 26 25 21 19 20 25 27 27 25 24 26 27 23 20 20 21 21 23 26 25 25 24 24 23 22 23 21 19 16 19 21 25 28 30 29 27 23 18 16 15 14 nan nan
nan nan nan nan nan nan nan nan nan nan nan nan nan nan nan nan nan nan nan nan nan nan nan nan nan 21 25 28 nan nan 35 36 34 34 33 33 32 32 35 35 38 37 31 28 25 27 26 26 27 31 30 31 29 28 30 24 25 28 26 26 27 28 28 28 28 29 28 26 24 22 19 20 22 26 28 30 29 26 24 20 19 17 16 15 nan nan
nan nan nan nan nan nan nan nan nan nan nan nan nan nan nan nan 24 nan 19 nan nan nan nan nan nan 29 31 30 31 38 39 34 28 30 27 27 28 31 37 36 32 29 27 26 28 31 31 30 32 32 34 34 35 33 33 27 28 30 28 28 29 28 29 28 29 30 30 28 27 25 25 25 27 29 29 27 24 22 21 21 nan 18 16 nan 14 nan
nan nan nan nan nan nan nan nan nan nan nan nan nan nan nan nan nan nan nan nan nan nan nan nan nan 28 32 28 32 35 35 35 35 32 27 nan 22 24 28 25 20 26 26 30 32 33 35 36 36 35 36 37 37 36 37 34 31 28 28 31 29 28 28 28 28 28 28 25 27 27 27 28 30 27 26 23 20 20 22 24 22 20 nan nan 16 nan
32 31 nan nan nan nan nan nan nan nan nan nan nan nan nan nan nan nan nan nan nan nan nan nan nan 29 26 28 31 34 34 35 33 33 36 nan 29 26 nan 29 28 28 31 30 32 34 36 36 37 37 39 39 39 37 37 36 34 33 32 32 31 29 28 28 28 27 26 24 23 25 26 28 27 23 23 22 20 21 24 24 23 21 18 17 18 nan
nan nan nan nan nan nan nan nan nan nan nan nan nan nan nan nan nan nan nan 18 12 nan nan nan nan 32 30 25 30 34 37 38 35 32 35 37 36 36 38 36 28 32 29 31 31 33 35 35 37 39 41 40 37 38 37 35 35 33 32 29 29 27 26 27 28 29 25 24 20 20 23 25 21 20 21 22 21 23 25 25 24 22 20 18 nan nan
nan nan nan nan nan nan nan nan nan nan nan nan nan nan nan nan nan 22 nan nan nan nan nan nan nan nan 30 30 35 33 30 36 37 36 33 35 38 39 38 37 34 40 37 34 35 36 36 37 37 38 38 38 37 38 36 34 34 31 28 26 22 21 21 22 20 17 21 22 19 18 19 18 19 19 19 24 24 26 27 26 24 23 21 20 21 nan
nan nan nan nan nan nan nan nan nan nan nan nan nan nan nan nan 13 25 nan 33 nan nan nan nan nan 32 32 34 38 34 37 38 36 37 34 32 37 39 39 41 36 38 36 36 36 37 37 38 36 36 36 36 35 34 33 33 29 32 28 23 21 26 25 26 25 22 14 12 16 18 16 16 18 20 21 24 27 28 28 26 25 24 20 20 20 19
nan nan nan nan nan nan nan nan nan nan nan nan nan nan 45 34 nan nan 28 nan nan 32 nan 33 32 32 30 34 nan 36 37 38 37 nan nan 33 33 33 35 36 38 39 36 37 37 34 35 36 35 29 28 31 29 28 29 26 24 24 25 26 25 25 26 27 25 20 16 15 12 13 17 18 20 23 24 23 26 27 24 21 21 22 19 19 21 21
nan nan nan nan nan nan nan nan nan nan nan nan nan nan nan 50 43 nan nan nan nan nan nan nan 29 36 40 40 38 36 33 34 33 25 28 26 25 21 32 35 38 38 39 38 39 38 37 37 34 30 28 28 20 20 22 20 24 23 24 25 28 26 23 22 17 16 21 20 22 16 18 23 21 24 24 23 25 22 22 15 14 20 20 22 22 22
nan nan nan nan nan nan nan nan nan nan nan nan nan nan nan 45 51 48 nan nan nan nan nan 37 34 39 38 40 38 35 33 30 32 28 23 nan 19 26 31 35 38 40 nan 40 38 37 37 35 34 33 31 34 32 28 30 26 26 27 26 23 24 21 21 20 21 22 23 25 23 23 21 22 23 22 23 24 23 22 21 18 14 19 22 21 24 27
nan nan 24 nan nan nan nan nan nan nan nan nan nan nan nan 43 46 47 45 44 39 nan 43 41 43 41 40 42 41 38 36 38 37 35 nan 29 30 32 nan nan nan 41 40 nan nan nan nan nan 35 33 34 34 37 35 34 30 30 31 30 28 25 25 26 26 22 25 24 24 23 23 25 24 21 21 21 20 22 23 22 20 20 21 20 22 25 26
22 27 31 nan nan nan nan nan nan nan nan nan nan nan nan nan nan nan 42 42 43 46 44 46 47 42 38 41 43 42 41 44 45 44 42 39 nan 33 40 nan nan nan nan nan nan nan nan nan nan nan nan 36 35 35 33 33 35 36 35 32 31 31 30 30 25 24 25 27 25 23 24 23 20 20 20 20 23 23 23 23 25 24 23 24 25 26
24 nan nan 22 nan nan nan nan nan nan nan nan nan nan nan nan nan nan 38 nan 29 33 41 44 nan nan nan nan nan 47 46 46 47 45 42 42 41 nan nan 38 nan nan nan nan nan nan nan nan nan nan nan nan nan nan nan nan 37 nan nan nan 35 33 31 28 28 29 29 30 27 26 25 25 25 25 24 24 25 25 26 27 28 29 28 29 29 30
nan nan nan nan nan nan nan nan nan nan nan nan nan nan nan nan nan nan nan nan 38 33 nan 36 40 nan nan nan nan 48 50 48 47 43 42 45 nan 45 43 41 40 nan nan 39 nan nan nan nan nan nan nan nan nan nan nan nan nan nan nan nan nan 37 34 33 30 30 31 30 30 29 28 29 29 30 28 30 29 28 29 30 31 33 32 33 33 34
nan nan nan nan nan nan nan nan nan nan nan nan nan 27 nan nan nan nan nan nan nan nan nan nan nan nan nan nan nan nan 49 47 46 46 44 43 43 43 43 43 nan nan 40 39 39 nan nan nan nan nan nan nan nan nan nan nan nan nan nan nan nan nan nan nan nan nan nan 31 31 30 29 30 30 32 34 33 34 33 33 35 34 36 36 38 37 36
25 20 nan nan nan 24 nan nan nan nan nan nan nan nan nan nan nan nan nan nan nan nan nan nan nan nan nan nan nan nan nan nan nan nan nan 45 46 45 44 nan nan nan nan nan nan nan nan nan nan nan nan nan nan nan nan nan nan nan nan nan nan nan nan nan nan nan nan nan nan nan nan nan nan nan nan 37 37 36 35 38 39 39 39 40 39 38
nan nan nan nan nan nan nan nan nan nan nan nan nan nan nan nan nan nan nan nan nan nan nan nan nan nan nan nan nan nan nan nan nan nan nan nan nan nan nan nan nan nan nan nan nan nan nan nan nan nan nan nan nan nan nan nan nan nan nan nan nan nan nan nan nan nan nan nan nan nan nan nan nan nan nan nan nan nan nan 41 41 41 42 42 40 40
nan 35 nan nan nan nan nan nan nan nan nan nan nan nan nan nan nan nan nan nan nan nan nan nan nan nan nan nan nan nan nan nan nan nan nan nan nan nan nan nan nan nan nan nan nan nan nan nan nan nan nan nan nan nan nan nan nan nan nan nan nan nan nan nan nan nan nan nan nan nan nan nan nan nan nan nan nan nan nan nan 44 43 45 44 44 43
35 30 nan nan nan nan nan nan nan nan nan nan nan nan nan nan nan nan nan nan nan nan nan nan nan nan nan nan nan nan nan nan nan nan nan nan nan nan nan nan nan nan nan nan nan nan nan nan nan nan nan nan nan nan nan nan nan nan nan nan nan nan nan nan nan nan nan nan nan nan nan nan nan nan nan nan nan nan nan nan nan nan 44 43 44 46
nan 39 nan nan nan nan nan nan nan nan nan nan nan nan nan nan nan nan nan nan nan nan nan nan nan nan nan nan nan nan nan nan nan nan nan nan nan nan nan nan nan nan nan nan nan nan nan nan nan nan nan nan nan nan nan nan nan nan nan nan nan nan nan nan nan nan nan nan nan nan nan nan nan nan nan nan nan nan nan nan nan nan nan 45 48 49
nan nan nan nan nan nan nan nan nan nan nan nan nan nan nan nan nan nan nan nan nan nan nan nan nan nan nan nan nan nan nan nan nan nan nan nan nan nan nan nan nan nan nan nan nan nan nan nan nan nan nan nan nan nan nan nan nan nan nan nan nan nan nan nan nan nan nan nan nan nan nan nan nan nan nan nan nan nan nan nan nan nan 50 52 nan nan
nan nan nan nan nan nan nan nan nan nan nan nan nan nan nan nan nan nan nan nan nan nan nan nan nan nan nan nan nan nan nan nan nan nan nan nan nan nan nan nan nan nan nan nan nan nan nan nan nan nan nan nan nan nan nan nan nan nan nan nan nan nan nan nan nan nan nan nan nan nan nan nan nan nan nan nan nan nan nan nan nan nan nan nan nan nan
nan nan nan nan nan nan nan nan nan nan nan nan nan nan nan nan nan nan nan nan nan nan nan nan nan nan nan nan nan nan nan nan nan nan nan nan nan nan nan nan nan nan nan nan nan nan nan nan nan nan nan nan nan nan nan nan nan nan nan nan nan nan nan nan nan nan nan nan nan nan nan nan nan nan nan nan nan nan nan nan nan nan nan nan nan 56
nan nan nan nan nan nan nan nan nan nan nan nan nan nan nan nan nan nan nan nan nan nan nan nan nan nan nan nan nan nan nan nan nan nan nan nan nan nan nan nan nan nan nan nan nan nan nan nan nan nan nan nan nan nan nan nan nan nan nan nan nan nan nan nan nan nan nan nan nan nan nan nan nan nan nan nan nan nan nan nan nan nan nan nan nan nan
nan nan nan nan nan nan nan nan nan nan nan nan nan nan nan nan nan nan nan nan nan nan nan nan nan nan nan nan nan nan nan nan nan nan nan nan nan nan nan nan nan nan nan nan nan nan nan nan nan nan nan nan nan nan nan nan nan nan nan nan nan nan nan nan nan nan nan nan nan nan nan nan nan nan nan nan nan nan nan nan nan nan nan nan nan nan
nan nan nan nan nan nan nan nan nan nan nan nan nan nan nan nan nan nan nan nan nan nan nan nan nan nan nan nan nan nan nan nan nan nan nan nan nan nan nan nan nan nan nan nan nan nan nan nan nan nan nan nan nan nan nan nan nan nan nan nan nan nan nan nan nan nan nan nan nan nan nan nan nan nan nan nan nan nan nan nan nan nan nan nan nan nan
nan nan nan nan nan nan nan nan nan nan nan nan nan nan nan nan nan nan nan nan nan nan nan nan nan nan nan nan nan nan nan nan nan nan nan nan nan nan nan nan nan nan nan nan nan nan nan nan nan nan nan nan nan nan nan nan nan nan nan nan nan nan nan nan nan nan nan nan nan nan nan nan nan nan nan nan nan nan nan nan nan nan nan nan nan nan
nan nan nan nan nan nan nan nan nan nan nan nan nan nan nan nan nan nan nan nan nan nan nan nan nan nan nan nan nan nan nan nan nan nan nan nan nan nan nan nan nan nan nan nan nan nan nan nan nan nan nan nan nan nan nan nan nan nan nan nan nan nan nan nan nan nan nan nan nan nan nan nan nan nan nan nan nan nan nan nan nan nan nan nan nan nan
nan nan nan nan nan nan nan nan nan nan nan nan nan nan nan nan nan nan nan nan nan nan nan nan nan nan nan nan nan nan nan nan nan nan nan nan nan nan nan nan nan nan nan nan nan nan nan nan nan nan nan nan nan nan nan nan nan nan nan nan nan nan nan nan nan nan nan nan nan nan nan nan nan nan nan nan nan nan nan nan nan nan nan nan nan nan
nan nan nan nan nan nan nan nan nan nan nan nan nan nan nan nan nan nan nan nan nan nan nan nan nan nan nan nan nan nan nan nan nan nan nan nan nan nan nan nan nan nan nan nan nan nan nan nan nan nan nan nan nan nan nan nan nan nan nan nan nan nan nan nan nan nan nan nan nan nan nan nan nan nan nan nan nan nan nan nan nan nan nan nan nan nan
nan nan nan nan nan nan nan nan nan nan nan nan nan nan nan nan nan nan nan nan nan nan nan nan nan nan nan nan nan nan nan nan nan nan nan nan nan nan nan nan nan nan nan nan nan nan nan nan nan nan nan nan nan nan nan nan nan nan nan nan nan nan nan nan nan nan nan nan nan nan nan nan nan nan nan nan nan nan nan nan nan nan nan nan nan nan
nan nan nan nan nan nan nan nan nan nan nan nan nan nan nan nan nan nan nan nan nan nan nan nan nan nan nan nan nan nan nan nan nan nan nan nan nan nan nan nan nan nan nan nan nan nan nan nan nan nan nan nan nan nan nan nan nan nan nan nan nan nan nan nan nan nan nan nan nan nan nan nan nan nan nan nan nan nan nan nan nan nan nan nan nan nan
Wind_Direction
nan nan nan nan nan nan nan nan nan nan nan nan nan nan nan nan nan nan nan nan nan nan nan nan nan nan nan nan nan nan nan nan nan nan nan nan 276 277 278 273 273 276 279 278 275 271 261 264 269 278 284 287 284 286 290 284 269 257 255 260 256 253 254 251 244 250 252 254 252 247 247 245 241 243 243 247 251 257 255 265 277 276 278 281 287 293
nan nan nan nan nan nan nan nan nan nan nan nan nan nan nan nan nan nan nan nan nan nan nan nan nan nan nan nan nan nan nan nan nan nan nan nan nan 286 281 279 278 277 273 278 267 258 261 273 277 279 282 284 287 290 287 279 272 278 260 248 256 253 247 240 237 245 247 244 247 246 247 249 245 250 253 256 257 258 262 261 262 267 277 289 290 289
nan nan nan nan nan nan nan nan nan nan nan nan nan nan nan nan nan nan nan nan nan nan nan nan nan nan nan nan nan nan nan nan nan nan nan nan nan nan 278 281 280 279 276 268 249 254 263 285 280 278 284 282 281 285 286 280 276 272 269 266 258 256 246 238 237 237 231 228 234 229 237 241 251 251 254 260 265 270 267 262 268 275 285 291 294 296
nan nan nan nan nan nan nan nan nan nan nan nan nan nan nan nan nan nan nan nan nan nan nan nan nan nan nan nan nan nan nan nan nan nan nan nan nan nan 274 284 280 277 270 258 265 286 295 284 280 279 278 274 277 280 282 279 275 267 263 262 260 251 247 244 240 238 230 225 221 223 223 228 235 248 247 257 257 257 270 272 271 271 273 280 286 295
nan nan nan nan nan nan nan nan nan nan nan nan nan nan nan nan nan nan nan nan nan nan nan nan nan nan nan nan nan nan nan nan nan nan nan nan nan nan 271 277 278 263 255 260 278 297 282 286 283 279 273 270 275 277 278 269 258 261 270 267 263 257 253 248 243 241 236 228 220 224 230 230 234 239 246 252 nan 258 257 265 270 277 284 282 279 281
nan nan nan nan nan nan nan nan nan nan nan nan nan nan nan nan nan nan nan nan nan nan nan nan nan nan nan nan nan nan nan nan nan nan nan nan nan 264 268 270 263 262 277 288 306 296 285 283 276 272 267 270 274 274 264 263 271 267 265 273 266 260 258 250 248 250 245 236 229 225 227 228 228 236 242 248 251 nan 265 265 269 277 272 275 286 283
nan nan nan nan nan nan nan nan nan nan nan nan nan nan nan nan nan nan nan nan nan nan nan nan nan nan nan nan nan nan nan nan nan nan nan nan nan 269 267 269 263 267 272 282 286 276 281 276 268 256 260 262 274 271 271 282 287 273 273 274 267 263 259 255 259 259 246 244 237 221 227 232 234 240 239 245 248 253 nan 263 264 264 269 280 281 288
nan nan nan nan nan nan nan nan nan nan nan nan nan nan nan nan nan nan nan nan nan nan nan nan nan nan nan nan nan nan nan nan nan nan nan nan nan 264 263 265 265 267 274 279 276 272 265 261 259 259 250 258 269 271 272 275 276 273 276 275 269 262 262 260 262 251 251 249 229 211 230 253 244 245 248 248 250 254 257 262 270 272 280 286 297 307
nan nan nan nan nan nan nan nan nan nan nan nan nan nan nan nan nan nan nan nan nan nan nan nan nan nan nan nan nan nan nan nan 275 nan 267 258 253 262 258 263 268 270 273 265 250 242 243 244 259 269 264 257 261 264 265 267 271 271 274 276 274 272 271 265 257 255 253 246 221 217 278 268 250 254 252 253 nan 257 262 270 277 277 275 274 275 281
nan nan nan nan nan nan nan nan nan nan nan nan nan nan nan nan nan nan nan nan nan nan nan nan nan nan nan nan nan nan nan nan 280 nan nan 265 263 269 270 274 274 268 262 245 236 234 242 246 251 262 275 259 254 263 266 268 275 276 281 289 288 284 267 238 237 244 249 240 233 256 289 285 269 262 261 262 261 264 271 272 267 270 273 282 285 278
nan nan nan nan nan nan nan nan nan nan nan nan nan nan nan nan nan nan nan nan nan nan nan nan 265 nan nan nan nan nan nan 270 nan nan nan nan 260 264 275 284 277 274 270 251 240 245 250 256 259 257 252 257 255 264 279 284 284 282 285 285 277 274 250 240 249 256 260 257 256 269 278 284 282 272 262 257 263 270 269 273 280 283 287 285 282 287
nan nan nan nan nan nan nan nan nan nan nan nan nan nan nan nan nan nan nan nan nan nan nan nan nan nan nan nan nan nan nan nan nan nan nan nan 259 264 274 274 276 272 259 246 252 249 251 252 258 264 272 290 294 289 289 286 280 281 289 289 276 270 273 282 286 282 288 279 278 275 277 275 279 279 265 258 260 269 272 278 283 281 285 288 291 286
nan nan nan nan nan nan nan nan nan nan nan nan nan nan nan nan nan nan nan nan nan nan nan nan nan nan nan 221 235 228 nan nan nan 246 248 260 270 272 274 269 265 262 248 245 252 254 256 266 268 279 292 298 298 298 300 298 290 290 293 297 296 297 298 302 299 301 298 283 281 284 281 278 281 278 269 262 262 266 273 279 279 288 294 297 293 287
nan nan nan nan nan nan nan nan nan nan nan nan nan nan nan nan nan nan nan nan nan nan nan nan nan nan nan nan nan nan 236 225 261 261 261 266 268 272 268 260 259 256 248 250 256 260 264 271 282 282 291 300 304 311 319 320 313 303 299 303 307 312 314 317 313 311 301 293 291 287 283 282 281 272 271 267 265 267 275 282 284 294 298 292 281 nan
nan nan nan nan nan nan nan nan nan nan nan nan nan nan nan nan nan nan nan nan nan nan 229 nan nan nan nan nan 238 240 240 238 241 246 245 261 261 266 270 262 253 246 238 240 250 257 257 272 287 280 279 292 290 302 305 311 307 298 299 303 306 307 318 321 324 318 315 307 302 293 287 282 273 269 268 263 265 271 279 282 289 290 284 275 nan nan
nan nan nan nan nan nan nan nan nan nan nan nan nan nan nan nan nan nan 218 201 223 nan nan nan nan 223 225 nan 237 237 241 245 248 246 256 256 265 265 258 252 246 245 245 239 247 252 253 263 272 279 289 293 294 300 304 310 315 313 315 321 325 324 320 319 317 314 311 309 301 291 287 282 274 271 266 261 264 270 279 289 292 282 266 265 277 nan
nan nan nan nan nan nan nan nan nan nan nan 211 nan nan nan nan nan nan nan nan 231 nan nan nan nan 244 245 240 243 249 nan nan nan 252 250 254 250 239 252 247 248 254 249 243 246 245 238 242 266 281 284 289 300 301 297 301 309 321 323 323 321 316 312 313 311 306 304 306 303 293 282 280 276 273 269 265 264 269 281 289 285 271 255 262 nan nan
nan 210 nan nan nan nan nan nan nan nan nan nan nan nan nan nan 242 nan nan nan nan nan nan 243 nan 239 nan 246 nan 253 247 nan nan 246 247 247 252 251 243 246 254 261 259 259 258 263 264 260 283 276 271 293 299 300 302 303 304 312 310 307 306 307 306 304 303 303 303 309 311 297 281 276 278 277 275 271 268 273 278 279 273 254 250 263 nan nan
nan nan nan nan nan nan nan nan nan nan nan nan nan nan nan nan nan nan nan nan nan nan nan nan nan 291 nan 264 nan 267 256 247 242 245 247 251 250 248 249 258 262 265 266 262 268 281 289 280 281 283 287 292 281 282 289 287 286 298 300 296 300 303 299 296 296 299 301 306 307 298 284 277 278 280 278 275 274 273 273 272 257 240 247 261 nan nan
nan nan nan nan nan nan nan nan nan nan nan nan nan nan nan nan nan nan nan nan nan nan nan nan nan 245 237 241 nan nan 256 247 247 252 251 245 239 239 246 259 261 260 259 273 287 293 287 281 281 284 286 291 294 289 284 289 296 302 302 299 303 305 300 295 291 293 297 300 299 297 287 283 283 284 280 276 275 270 266 260 243 240 251 261 nan nan
nan nan nan nan nan nan nan nan nan nan nan nan nan nan nan nan 232 nan 232 nan nan nan nan nan nan 239 232 229 254 264 270 271 264 257 255 242 235 236 238 231 240 254 269 279 285 287 285 282 281 278 279 283 285 285 286 280 292 300 304 304 305 302 301 298 295 293 293 293 291 289 285 282 281 284 280 274 268 260 254 244 nan 246 254 nan 265 nan
nan nan nan nan nan nan nan nan nan nan nan nan nan nan nan nan nan nan nan nan nan nan nan nan nan 236 236 237 251 263 268 278 278 275 277 nan 263 256 259 264 255 263 271 279 281 281 285 286 284 284 282 281 282 286 294 299 296 299 303 301 298 298 299 298 301 300 299 290 286 286 283 281 278 279 272 263 256 252 244 241 246 254 nan nan 264 nan
221 228 nan nan nan nan nan nan nan nan nan nan nan nan nan nan nan nan nan nan nan nan nan nan nan 238 239 250 254 259 263 265 270 277 282 nan 285 276 nan 269 267 264 270 272 273 276 278 282 284 283 283 283 284 289 293 295 300 302 304 302 299 299 301 302 301 301 301 297 294 295 293 286 278 270 260 254 252 249 247 244 250 259 262 261 258 nan
nan nan nan nan nan nan nan nan nan nan nan nan nan nan nan nan nan nan nan 263 242 nan nan nan nan 245 245 246 258 260 262 266 266 264 269 274 275 277 276 274 270 271 270 271 274 272 274 278 281 282 284 282 284 288 290 290 294 295 295 297 300 304 308 307 301 295 291 292 301 307 306 290 272 259 250 256 252 250 249 249 256 256 258 256 nan nan
nan nan nan nan nan nan nan nan nan nan nan nan nan nan nan nan nan 232 nan nan nan nan nan nan nan nan 247 244 250 251 260 266 268 266 266 267 264 263 268 268 259 262 267 268 267 269 271 272 274 276 278 280 283 286 288 293 293 291 292 291 293 290 283 275 272 270 287 292 297 308 306 287 270 262 259 262 255 252 253 254 254 254 254 253 260 nan
nan nan nan nan nan nan nan nan nan nan nan nan nan nan nan nan 200 239 nan 227 nan nan nan nan nan 233 254 255 255 252 249 247 249 259 252 251 261 261 256 255 255 260 265 266 263 263 263 261 261 268 273 274 277 281 284 289 293 296 292 279 281 293 297 301 302 283 246 249 291 298 297 287 274 269 265 257 249 245 253 250 245 252 249 254 260 259
nan nan nan nan nan nan nan nan nan nan nan nan nan nan 197 186 nan nan 245 nan nan 234 nan 226 238 252 257 262 nan 254 250 252 246 nan nan 256 242 241 247 245 248 252 257 260 262 259 259 263 266 262 265 273 277 278 281 284 280 281 286 294 294 292 293 294 292 286 285 283 267 272 287 281 269 260 249 245 247 252 237 250 252 252 256 257 261 261
nan nan nan nan nan nan nan nan nan nan nan nan nan nan nan 206 200 nan nan nan nan nan nan nan 242 244 242 247 255 255 256 256 256 250 249 246 244 235 242 245 249 252 253 255 257 259 263 268 270 273 275 271 267 283 291 290 284 282 274 282 287 285 277 278 278 291 293 291 291 287 267 260 260 268 268 259 255 257 273 272 257 260 259 259 261 266
nan nan nan nan nan nan nan nan nan nan nan nan nan nan nan 212 215 209 nan nan nan nan nan 242 243 249 248 250 256 262 266 269 269 264 260 nan 261 253 251 247 246 247 nan 248 250 252 257 258 257 258 259 269 273 263 261 260 265 275 284 274 270 277 284 285 287 282 284 290 283 283 280 277 275 270 265 262 259 265 265 267 263 257 248 257 264 254
nan nan 249 nan nan nan nan nan nan nan nan nan nan nan nan 224 226 223 218 221 227 nan 248 252 249 247 251 249 249 250 252 251 252 251 nan 232 233 253 nan nan nan 245 244 nan nan nan nan nan 260 264 262 259 260 258 261 265 270 275 278 285 289 282 276 278 276 277 275 267 262 264 271 270 261 261 263 267 269 270 273 276 273 263 258 251 253 259
224 239 230 nan nan nan nan nan nan nan nan nan nan nan nan nan nan nan 227 217 224 239 252 255 253 249 247 249 246 241 245 253 253 249 246 246 nan 235 248 nan nan nan nan nan nan nan nan nan nan nan nan 266 266 267 266 264 265 263 264 261 266 269 272 275 273 267 263 266 267 265 266 271 266 262 267 264 265 264 267 271 272 271 267 261 260 261
229 nan nan 241 nan nan nan nan nan nan nan nan nan nan nan nan nan nan 238 nan 232 246 252 252 nan nan nan nan nan 241 245 250 253 254 252 250 244 nan nan 241 nan nan nan nan nan nan nan nan nan nan nan nan nan nan nan nan 266 nan nan nan 269 266 262 256 259 262 262 265 271 273 271 268 269 270 267 270 269 269 271 271 272 273 273 271 268 269
nan nan nan nan nan nan nan nan nan nan nan nan nan nan nan nan nan nan nan nan 245 245 nan 243 249 nan nan nan nan 244 246 246 250 255 257 252 nan 245 244 246 247 nan nan 242 nan nan nan nan nan nan nan nan nan nan nan nan nan nan nan nan nan 271 274 268 260 259 263 262 260 256 257 255 257 266 269 268 268 266 268 270 274 274 274 274 274 274
nan nan nan nan nan nan nan nan nan nan nan nan nan 229 nan nan nan nan nan nan nan nan nan nan nan nan nan nan nan nan 247 246 248 250 251 255 253 247 244 245 nan nan 244 242 242 nan nan nan nan nan nan nan nan nan nan nan nan nan nan nan nan nan nan nan nan nan nan 264 259 260 262 263 264 268 266 264 266 268 268 268 268 269 270 273 273 274
258 251 nan nan nan 245 nan nan nan nan nan nan nan nan nan nan nan nan nan nan nan nan nan nan nan nan nan nan nan nan nan nan nan nan nan 245 252 253 250 nan nan nan nan nan nan nan nan nan nan nan nan nan nan nan nan nan nan nan nan nan nan nan nan nan nan nan nan nan nan nan nan nan nan nan nan 265 269 269 268 271 273 273 271 274 276 277
nan nan nan nan nan nan nan nan nan nan nan nan nan nan nan nan nan nan nan nan nan nan nan nan nan nan nan nan nan nan nan nan nan nan nan nan nan nan nan nan nan nan nan nan nan nan nan nan nan nan nan nan nan nan nan nan nan nan nan nan nan nan nan nan nan nan nan nan nan nan nan nan nan nan nan nan nan nan nan 270 275 275 276 274 272 272
nan 258 nan nan nan nan nan nan nan nan nan nan nan nan nan nan nan nan nan nan nan nan nan nan nan nan nan nan nan nan nan nan nan nan nan nan nan nan nan nan nan nan nan nan nan nan nan nan nan nan nan nan nan nan nan nan nan nan nan nan nan nan nan nan nan nan nan nan nan nan nan nan nan nan nan nan nan nan nan nan 266 269 274 277 281 282
261 253 nan nan nan nan nan nan nan nan nan nan nan nan nan nan nan nan nan nan nan nan nan nan nan nan nan nan nan nan nan nan nan nan nan nan nan nan nan nan nan nan nan nan nan nan nan nan nan nan nan nan nan nan nan nan nan nan nan nan nan nan nan nan nan nan nan nan nan nan nan nan nan nan nan nan nan nan nan nan nan nan 269 273 276 281
nan 261 nan nan nan nan nan nan nan nan nan nan nan nan nan nan nan nan nan nan nan nan nan nan nan nan nan nan nan nan nan nan nan nan nan nan nan nan nan nan nan nan nan nan nan nan nan nan nan nan nan nan nan nan nan nan nan nan nan nan nan nan nan nan nan nan nan nan nan nan nan nan nan nan nan nan nan nan nan nan nan nan nan 274 278 281
nan nan nan nan nan nan nan nan nan nan nan nan nan nan nan nan nan nan nan nan nan nan nan nan nan nan nan nan nan nan nan nan nan nan nan nan nan nan nan nan nan nan nan nan nan nan nan nan nan nan nan nan nan nan nan nan nan nan nan nan nan nan nan nan nan nan nan nan nan nan nan nan nan nan nan nan nan nan nan nan nan nan 275 278 nan nan
nan nan nan nan nan nan nan nan nan nan nan nan nan nan nan nan nan nan nan nan nan nan nan nan nan nan nan nan nan nan nan nan nan nan nan nan nan nan nan nan nan nan nan nan nan nan nan nan nan nan nan nan nan nan nan nan nan nan nan nan nan nan nan nan nan nan nan nan nan nan nan nan nan nan nan nan nan nan nan nan nan nan nan nan nan nan
nan nan nan nan nan nan nan nan nan nan nan nan nan nan nan nan nan nan nan nan nan nan nan nan nan nan nan nan nan nan nan nan nan nan nan nan nan nan nan nan nan nan nan nan nan nan nan nan nan nan nan nan nan nan nan nan nan nan nan nan nan nan nan nan nan nan nan nan nan nan nan nan nan nan nan nan nan nan nan nan nan nan nan nan nan 278
nan nan nan nan nan nan nan nan nan nan nan nan nan nan nan nan nan nan nan nan nan nan nan nan nan nan nan nan nan nan nan nan nan nan nan nan nan nan nan nan nan nan nan nan nan nan nan nan nan nan nan nan nan nan nan nan nan nan nan nan nan nan nan nan nan nan nan nan nan nan nan nan nan nan nan nan nan nan nan nan nan nan nan nan nan nan
nan nan nan nan nan nan nan nan nan nan nan nan nan nan nan nan nan nan nan nan nan nan nan nan nan nan nan nan nan nan nan nan nan nan nan nan nan nan nan nan nan nan nan nan nan nan nan nan nan nan nan nan nan nan nan nan nan nan nan nan nan nan nan nan nan nan nan nan nan nan nan nan nan nan nan nan nan nan nan nan nan nan nan nan nan nan
nan nan nan nan nan nan nan nan nan nan nan nan nan nan nan nan nan nan nan nan nan nan nan nan nan nan nan nan nan nan nan nan nan nan nan nan nan nan nan nan nan nan nan nan nan nan nan nan nan nan nan nan nan nan nan nan nan nan nan nan nan nan nan nan nan nan nan nan nan nan nan nan nan nan nan nan nan nan nan nan nan nan nan nan nan nan
nan nan nan nan nan nan nan nan nan nan nan nan nan nan nan nan nan nan nan nan nan nan nan nan nan nan nan nan nan nan nan nan nan nan nan nan nan nan nan nan nan nan nan nan nan nan nan nan nan nan nan nan nan nan nan nan nan nan nan nan nan nan nan nan nan nan nan nan nan nan nan nan nan nan nan nan nan nan nan nan nan nan nan nan nan nan
nan nan nan nan nan nan nan nan nan nan nan nan nan nan nan nan nan nan nan nan nan nan nan nan nan nan nan nan nan nan nan nan nan nan nan nan nan nan nan nan nan nan nan nan nan nan nan nan nan nan nan nan nan nan nan nan nan nan nan nan nan nan nan nan nan nan nan nan nan nan nan nan nan nan nan nan nan nan nan nan nan nan nan nan nan nan
nan nan nan nan nan nan nan nan nan nan nan nan nan nan nan nan nan nan nan nan nan nan nan nan nan nan nan nan nan nan nan nan nan nan nan nan nan nan nan nan nan nan nan nan nan nan nan nan nan nan nan nan nan nan nan nan nan nan nan nan nan nan nan nan nan nan nan nan nan nan nan nan nan nan nan nan nan nan nan nan nan nan nan nan nan nan
nan nan nan nan nan nan nan nan nan nan nan nan nan nan nan nan nan nan nan nan nan nan nan nan nan nan nan nan nan nan nan nan nan nan nan nan nan nan nan nan nan nan nan nan nan nan nan nan nan nan nan nan nan nan nan nan nan nan nan nan nan nan nan nan nan nan nan nan nan nan nan nan nan nan nan nan nan nan nan nan nan nan nan nan nan nan
nan nan nan nan nan nan nan nan nan nan nan nan nan nan nan nan nan nan nan nan nan nan nan nan nan nan nan nan nan nan nan nan nan nan nan nan nan nan nan nan nan nan nan nan nan nan nan nan nan nan nan nan nan nan nan nan nan nan nan nan nan nan nan nan nan nan nan nan nan nan nan nan nan nan nan nan nan nan nan nan nan nan nan nan nan nan
nan nan nan nan nan nan nan nan nan nan nan nan nan nan nan nan nan nan nan nan nan nan nan nan nan nan nan nan nan nan nan nan nan nan nan nan nan nan nan nan nan nan nan nan nan nan nan nan nan nan nan nan nan nan nan nan nan nan nan nan nan nan nan nan nan nan nan nan nan nan nan nan nan nan nan nan nan nan nan nan nan nan nan nan nan nan